Weather History for O'Neill, NE

Change the Weather History Date:

Thursday, November 22, 2012

  Actual Average Record
Temperature  
Mean Temperature 39 °F -  
Max Temperature 53 °F 43 °F 72 °F (1974)
Min Temperature 25 °F 22 °F -4 °F (1975)
Degree Days  
Heating Degree Days 26    
Moisture  
Dew Point 28 °F    
Average Humidity 54    
Maximum Humidity 83    
Minimum Humidity 31    
Precipitation  
Precipitation 0.00 in - - ()
Sea Level Pressure  
Sea Level Pressure 29.99 in    
Wind  
Wind Speed 15 mph (WNW)    
Max Wind Speed 36 mph    
Max Gust Speed 44 mph    
Visibility 10 miles    
Events      
Averages and records for this station are not official NWS values.
T = Trace of Precipitation, MM = Missing Value Source: NWS Daily Summary

Daily Weather History Graph

Daily Weather History Graph

Search for Another Location

Airport:

Trip Planner

Search our weather history database for the weather conditions in past years. The results will help you decide how hot, cold, wet, or windy it might be!

Date:

Astronomy

Nov. 22, 2012 Rise Set
Actual Time 7:35 AM CST 5:06 PM CST
Civil Twilight 7:04 AM CST 5:37 PM CST
Nautical Twilight 6:29 AM CST 6:12 PM CST
Astronomical Twilight 5:56 AM CST 6:45 PM CST
Moon 1:58 PM CST (11/22) 1:50 AM CST (11/22)
Length of Visible Light 10h 33m
Length of Day
9h 31m
Waxing Gibbous, 71% of the Moon is Illuminated
Nov 22
Waxing Gibbous
Nov 28
Full
Dec 6
Last Quarter
Dec 13
New
Dec 19
First Quarter

Hourly Weather History & Observations

Time (CST) Temp. Windchill Dew Point Humidity Pressure Visibility Wind Dir Wind Speed Gust Speed Precip Events Conditions
12:15 AM 44.2 °F 40.3 °F 26.2 °F 49% 29.72 in 10.0 mi SSW 6.9 mph - N/A   Clear
12:35 AM 41.9 °F 38.2 °F 26.2 °F 54% 29.72 in 10.0 mi SSW 5.8 mph - N/A   Clear
12:55 AM 43.3 °F 39.9 °F 26.4 °F 51% 29.71 in 10.0 mi SSW 5.8 mph - N/A   Clear
1:15 AM 42.1 °F 37.7 °F 26.2 °F 53% 29.71 in 10.0 mi SSW 6.9 mph - N/A   Clear
1:35 AM 41.4 °F 36.2 °F 25.7 °F 54% 29.71 in 10.0 mi SW 8.1 mph - N/A   Clear
1:55 AM 41.7 °F 36.7 °F 25.7 °F 53% 29.71 in 10.0 mi SW 8.1 mph - N/A   Clear
2:15 AM 40.3 °F 35.5 °F 26.4 °F 58% 29.71 in 10.0 mi SSW 6.9 mph - N/A   Clear
2:35 AM 41.0 °F 39.0 °F 26.1 °F 55% 29.71 in 10.0 mi SW 3.5 mph - N/A   Clear
2:55 AM 40.3 °F 34.9 °F 26.2 °F 57% 29.71 in 10.0 mi SW 8.1 mph - N/A   Clear
3:15 AM 40.8 °F 36.9 °F 26.1 °F 56% 29.71 in 10.0 mi WSW 5.8 mph - N/A   Clear
3:35 AM 43.7 °F 38.1 °F 26.1 °F 50% 29.71 in 10.0 mi West 10.4 mph - N/A   Clear
3:55 AM 45.7 °F 40.2 °F 25.5 °F 45% 29.72 in 10.0 mi West 11.5 mph - N/A   Clear
4:15 AM 50.2 °F - 25.3 °F 38% 29.72 in 10.0 mi West 10.4 mph - N/A   Clear
4:35 AM 52.3 °F - 25.2 °F 35% 29.73 in 10.0 mi WNW 13.8 mph - N/A   Clear
4:55 AM 52.2 °F - 25.3 °F 35% 29.73 in 10.0 mi WNW 11.5 mph - N/A   Clear
5:15 AM 51.4 °F - 27.1 °F 39% 29.73 in 10.0 mi WNW 16.1 mph - N/A   Clear
5:35 AM 51.3 °F - 29.7 °F 44% 29.76 in 10.0 mi WNW 18.4 mph 24.2 mph N/A   Clear
5:55 AM 50.2 °F - 31.8 °F 49% 29.77 in 10.0 mi NW 17.3 mph 21.9 mph N/A   Clear
6:15 AM 50.0 °F - 33.1 °F 52% 29.78 in 10.0 mi NW 16.1 mph - N/A   Clear
6:35 AM 50.4 °F - 34.2 °F 54% 29.79 in 10.0 mi NW 15.0 mph - N/A   Clear
6:55 AM 50.9 °F - 34.7 °F 54% 29.79 in 10.0 mi NW 16.1 mph 23.0 mph N/A   Clear
7:15 AM 50.0 °F - 34.7 °F 56% 29.81 in 10.0 mi NW 15.0 mph 20.7 mph N/A   Clear
7:35 AM 48.7 °F - 34.9 °F 59% 29.83 in 10.0 mi NW 13.8 mph - N/A   Clear
7:55 AM 48.2 °F - 35.6 °F 62% 29.85 in 10.0 mi NW 15.0 mph - N/A   Clear
8:15 AM 47.7 °F - 36.0 °F 64% 29.86 in 10.0 mi NW 16.1 mph 20.7 mph N/A   Clear
8:35 AM 48.4 °F - 36.7 °F 64% 29.88 in 10.0 mi NW 16.1 mph 24.2 mph N/A   Clear
8:55 AM 49.8 °F - 37.4 °F 62% 29.89 in 10.0 mi NW 18.4 mph 24.2 mph N/A   Clear
9:15 AM 49.3 °F - 37.6 °F 64% 29.90 in 10.0 mi NW 20.7 mph 25.3 mph N/A   Clear
9:35 AM 49.6 °F - 37.6 °F 63% 29.93 in 10.0 mi NW 19.6 mph 26.5 mph N/A   Clear
9:55 AM 50.5 °F - 37.8 °F 62% 29.95 in 10.0 mi NW 26.5 mph 33.4 mph N/A   Clear
10:15 AM 51.4 °F - 37.6 °F 59% 29.95 in 10.0 mi NW 26.5 mph 34.5 mph N/A   Clear
10:35 AM 53.2 °F - 36.9 °F 54% 29.97 in 10.0 mi NW 25.3 mph 38.0 mph N/A   Clear
10:55 AM 52.0 °F - 35.6 °F 54% 29.99 in 10.0 mi NW 31.1 mph 42.6 mph N/A   Mostly Cloudy
11:15 AM 49.8 °F - 35.8 °F 59% 30.00 in 10.0 mi NW 28.8 mph 43.7 mph N/A   Overcast
11:35 AM 49.5 °F - 35.6 °F 59% 30.01 in 10.0 mi NW 32.2 mph 39.1 mph N/A   Overcast
11:55 AM 47.5 °F - 37.8 °F 69% 30.01 in 10.0 mi NW 27.6 mph 39.1 mph N/A   Overcast
12:15 PM 49.3 °F - 37.9 °F 65% 30.01 in 10.0 mi NW 24.2 mph 32.2 mph N/A   Overcast
12:35 PM 50.2 °F - 35.4 °F 57% 30.01 in 10.0 mi NNW 29.9 mph 35.7 mph N/A   Mostly Cloudy
12:55 PM 50.0 °F - 34.7 °F 56% 30.02 in 10.0 mi NW 25.3 mph 38.0 mph N/A   Scattered Clouds
1:15 PM 51.3 °F - 33.8 °F 51% 30.02 in 10.0 mi NW 25.3 mph 38.0 mph N/A   Scattered Clouds
1:35 PM 52.0 °F - 32.0 °F 47% 30.02 in 10.0 mi NW 35.7 mph 43.7 mph N/A   Clear
1:55 PM 52.9 °F - 32.0 °F 45% 30.03 in 10.0 mi NW 27.6 mph 41.4 mph N/A   Clear
2:15 PM 52.7 °F - 29.5 °F 41% 30.05 in 10.0 mi NW 31.1 mph 39.1 mph N/A   Clear
2:35 PM 52.7 °F - 27.7 °F 38% 30.06 in 10.0 mi NW 26.5 mph 35.7 mph N/A   Clear
2:55 PM 52.3 °F - 22.1 °F 31% 30.07 in 10.0 mi NW 31.1 mph 39.1 mph N/A   Scattered Clouds
3:15 PM 51.8 °F - 23.0 °F 33% 30.08 in 10.0 mi NW 24.2 mph 32.2 mph N/A   Scattered Clouds
3:35 PM 51.6 °F - 22.5 °F 32% 30.09 in 10.0 mi NW 24.2 mph 27.6 mph N/A   Clear
3:55 PM 50.9 °F - 21.9 °F 32% 30.10 in 10.0 mi NW 25.3 mph 29.9 mph N/A   Clear
4:15 PM 50.2 °F - 21.2 °F 32% 30.11 in 10.0 mi NW 20.7 mph 27.6 mph N/A   Clear
4:35 PM 49.3 °F - 21.9 °F 34% 30.12 in 10.0 mi NW 19.6 mph 29.9 mph N/A   Clear
4:55 PM 47.7 °F - 22.5 °F 37% 30.13 in 10.0 mi NW 15.0 mph 19.6 mph N/A   Clear
5:15 PM 46.6 °F - 22.6 °F 39% 30.13 in 10.0 mi WNW 11.5 mph 18.4 mph N/A   Clear
5:35 PM 45.5 °F 40.3 °F 23.0 °F 41% 30.14 in 10.0 mi WNW 10.4 mph - N/A   Clear
5:55 PM 43.2 °F 36.2 °F 23.5 °F 46% 30.17 in 10.0 mi NNW 13.8 mph - N/A   Scattered Clouds
6:15 PM 44.1 °F 35.7 °F 28.9 °F 55% 30.19 in 10.0 mi NW 20.7 mph - N/A   Scattered Clouds
6:35 PM 41.9 °F 34.6 °F 29.8 °F 62% 30.20 in 10.0 mi NNW 13.8 mph - N/A   Scattered Clouds
6:55 PM 39.7 °F 33.7 °F 30.0 °F 68% 30.21 in 10.0 mi NW 9.2 mph - N/A   Clear
7:15 PM 38.5 °F 33.4 °F 30.0 °F 72% 30.22 in 10.0 mi WNW 6.9 mph - N/A   Clear
7:35 PM 36.9 °F 31.4 °F 29.5 °F 75% 30.23 in 10.0 mi WNW 6.9 mph - N/A   Clear
7:55 PM 35.8 °F 30.9 °F 29.1 °F 77% 30.23 in 10.0 mi WNW 5.8 mph - N/A   Clear
8:15 PM 33.4 °F 25.9 °F 27.5 °F 79% 30.23 in 10.0 mi West 9.2 mph - N/A   Clear
8:35 PM 33.3 °F 25.7 °F 28.6 °F 83% 30.24 in 10.0 mi West 9.2 mph - N/A   Clear
8:55 PM 37.8 °F 28.0 °F 28.2 °F 68% 30.26 in 10.0 mi NW 18.4 mph 27.6 mph N/A   Clear
9:15 PM 39.0 °F 28.3 °F 25.7 °F 59% 30.27 in 10.0 mi NW 24.2 mph 31.1 mph N/A   Mostly Cloudy
9:35 PM 37.0 °F 24.5 °F 25.0 °F 62% 30.29 in 10.0 mi NNW 29.9 mph 41.4 mph N/A   Overcast
9:55 PM 33.4 °F 19.8 °F 18.3 °F 54% 30.30 in 10.0 mi NW 28.8 mph 43.7 mph N/A   Scattered Clouds
10:15 PM 30.9 °F 16.7 °F 16.2 °F 54% 30.32 in 10.0 mi NW 27.6 mph 41.4 mph N/A   Clear
10:35 PM 29.1 °F 14.8 °F 16.7 °F 60% 30.33 in 10.0 mi NW 25.3 mph 28.8 mph N/A   Clear
10:55 PM 28.4 °F 13.5 °F 15.4 °F 58% 30.34 in 10.0 mi NW 26.5 mph 38.0 mph N/A   Clear
11:15 PM 26.6 °F 10.3 °F 12.7 °F 56% 30.36 in 10.0 mi NW 29.9 mph 38.0 mph N/A   Clear
11:35 PM 25.7 °F 9.6 °F 11.7 °F 55% 30.37 in 10.0 mi NW 27.6 mph 31.1 mph N/A   Clear
11:55 PM 25.2 °F 10.1 °F 11.8 °F 57% 30.37 in 10.0 mi NW 23.0 mph 34.5 mph N/A   Clear